Flag for U.S.A. Weather past 2 weeks in Cape Coral, Florida, U.S.A.

Now
80 °F

Clear.


Feels Like: 85 °F
Forecast: 77 / 89 °F
Wind: 3 mph from Southeast

Location: Page Field

Current Time: Jul 25, 2014 at 12:26:20 AM

Latest Report: Jul 24, 2014 at 11:53 PM


Visibility: 10 mi

Pressure: 30.05 "Hg

Humidity: 87%

Dew point: 76 °F

Location of Cape CoralLocation

Historic Weather in Cape Coral — Graph

°F

Cape Coral temperature yesterday

Maximum temperature yesterday: 91 °F (at 11:53 AM)
Minimum temperature yesterday: 77 °F (at 2:53 AM)
Average temperature yesterday: 84 °F

Past Weeks' High & Low Weather Summary

 TemperatureHumidityPressure
High94 °F (Jul 20, 2:53 PM)97% (Jul 10, 3:53 AM)30.14 "Hg (Jul 10, 3:53 AM)
Low72 °F (Jul 10, 2:00 PM)41% (Jul 20, 2:53 PM)29.95 "Hg (Jul 16, 3:53 AM)
Average81 °F79%30.05 "Hg
* Reported Jul 9 10:53 PM — Jul 24 10:53 PM, Cape Coral, Weather by CustomWeather, © 2014

Note: Actual official high and low records may vary slightly from our data, if they occured in-between our weather recording intervals... More about our weather records

Advertising

Cape Coral weather history for previous 24 hours

 ConditionsComfort  
Time TempWeatherWind HumidityBarometerVisibility
10:53 PM
Jul 24
81 °FClear.3 mph82%30.05 "Hg10 mi
9:53 PM85 °FClear.No wind70%30.04 "Hg10 mi
8:53 PM85 °FSunny.3 mph70%30.02 "Hg10 mi
7:53 PM86 °FSunny.5 mph67%30.01 "Hg10 mi
6:53 PM87 °FSunny.8 mph65%30.00 "Hg10 mi
5:53 PM89 °FSunny.8 mph57%30.00 "Hg10 mi
4:53 PM89 °FSunny.7 mph55%30.00 "Hg10 mi
3:53 PM91 °FPassing clouds.12 mph56%30.01 "Hg10 mi
2:53 PM90 °FScattered clouds.7 mph61%30.02 "Hg10 mi
1:53 PM89 °FScattered clouds.12 mph63%30.04 "Hg10 mi
12:53 PM89 °FThundershowers. Scattered clouds.7 mph57%30.05 "Hg10 mi
11:53 AM91 °FHot.5 mph56%30.06 "Hg10 mi
10:53 AMN/AN/AN/A30.07 "HgN/A
9:53 AM86 °FSunny.6 mph70%30.05 "Hg10 mi
8:53 AM83 °FSunny.6 mph77%30.05 "Hg10 mi
7:53 AM79 °FSunny.No wind84%30.04 "Hg10 mi
6:53 AM77 °FClear.No wind88%30.02 "Hg10 mi
5:53 AM78 °FPartly cloudy.5 mph87%30.02 "Hg10 mi
4:53 AM78 °FClear.No wind93%30.01 "Hg10 mi
3:53 AM77 °FClear.3 mph94%30.01 "Hg10 mi
2:53 AM77 °FClear.No wind94%30.02 "Hg10 mi
1:53 AM78 °FClear.No wind90%30.03 "Hg10 mi
12:53 AM79 °FClear.No wind88%30.03 "Hg10 mi
Weather by CustomWeather, © 2014

See weather overviewHow to use our weather pages